Miscellaneous Local Product
Issued by NWS Hastings, NE

Home | Current Version | Previous Version | Text Only | Print | Product List | Glossary On
Versions: 1 2 3 4 5 6 7 8 9 10 11 12 13 14 15 16 17 18 19 20 21 22 23 24 25 26 27 28 29 30 31 32 33 34 35 36 37 38 39 40 41 42 43 44 45 46 47 48 49 50
129
AXUS43 KGID 110902
MISGRI

GID CWA HOURLY WEATHER ROUNDUP
NATIONAL WEATHER SERVICE HASTINGS NE
300 AM CST THU FEB 11 2016

NOTE: "FAIR" INDICATES FEW OR NO CLOUDS BELOW 12,000 FEET WITH NO
SIGNIFICANT WEATHER AND/OR OBSTRUCTIONS TO VISIBILITY.

...SOUTH CENTRAL NEBRASKA...

CITY           SKY/WX    TMP DP  RH WIND       PRES   REMARKS
GRAND ISLAND   CLOUDY    25  23  92 NE6       30.20R WCI  18
HASTINGS       CLOUDY    28  23  81 N14       30.19R WCI  17
KEARNEY        CLOUDY    28  25  86 N13       30.18S WCI  18
ORD            CLOUDY    29  25  85 CALM      30.17S
YORK           CLOUDY    23  21  93 NE8       30.21R WCI  14
AURORA         CLOUDY    25  23  93 N8        30.20R WCI  16
LEXINGTON      CLOUDY    28  25  87 CALM      30.18S
HOLDREGE       CLOUDY    27  25  93 N5        30.17S WCI  22
HEBRON         CLOUDY    24  21  91 NE8       30.21R WCI  14

...NEBRASKA PANHANDLE...

CITY           SKY/WX    TMP DP  RH WIND       PRES   REMARKS
CHADRON        CLEAR     25  22  88 CALM      30.09F
ALLIANCE       CLEAR     24  22  91 W6        30.09F WCI  17
SCOTTSBLUFF    CLOUDY    30  24  78 N8        30.11F WCI  22
SIDNEY         CLOUDY    32  24  72 NW9       30.13F WCI  24

...WESTERN AND NORTH CENTRAL NEBRASKA...

CITY           SKY/WX    TMP DP  RH WIND       PRES   REMARKS
VALENTINE      CLOUDY    27  26  96 NW3       30.16F
AINSWORTH      CLOUDY    28  24  85 NW7       30.17R WCI  20
ONEILL         CLOUDY    26  23  89 NE3       30.17F
BROKEN BOW       N/A     31  28  89 MISG      30.15F
IMPERIAL       CLOUDY    26  23  88 CALM      30.16R
NORTH PLATTE   CLOUDY    24  22  91 NW3       30.16S
MCCOOK         CLOUDY    30  26  85 CALM      30.16S

...EASTERN NEBRASKA...

CITY           SKY/WX    TMP DP  RH WIND       PRES   REMARKS
NORFOLK        CLOUDY    20  16  84 NE5       30.20F WCI  13
SO SIOUX CITY  CLOUDY    17   9  70 E7        30.26F WCI   8
TEKAMAH        CLOUDY    17  11  77 NE9       30.26R WCI   6
COLUMBUS       CLOUDY    21  10  63 NE7       30.22R WCI  13
ALBION         CLOUDY    24  20  86 N6        30.19S WCI  17
OMAHA EPPLEY   CLOUDY    17  11  77 N10       30.27R WCI   5
OFFUTT AFB     CLOUDY    18  14  83 N9        30.25R WCI   7
MILLARD        CLOUDY    19  14  80 N5        30.25R WCI  12
LINCOLN        CLOUDY    18  14  84 N10       30.25R WCI   6
NEBRASKA CITY  CLOUDY    22  20  92 N9        30.20R WCI  12
BEATRICE       CLOUDY    24  22  93 N9        30.20R WCI  14
FALLS CITY     PTCLDY    22  19  89 N7        30.20R WCI  13

...NORTHERN KANSAS...

CITY           SKY/WX    TMP DP  RH WIND       PRES   REMARKS
GOODLAND       CLOUDY    29  23  78 W3        30.16R
HILL CITY      CLEAR     31  27  85 N9        30.17R WCI  23
NORTON         SUNNY     28  23  80 NW6       30.16S WCI  22
PHILLIPSBURG   CLEAR     32  27  80 CALM      30.18S
SMITH CENTER   CLEAR     28  25  86 N15G21    30.18R WCI  17
BELOIT         CLEAR     27  25  93 N7        30.17R WCI  19
HAYS           CLEAR     34  21  60 NE9       30.15R WCI  26
RUSSELL        CLEAR     32  28  85 N13       30.13R WCI  22
CONCORDIA      MOCLDY    27  23  85 N13       30.17R WCI  16
SALINA         CLEAR     32  25  75 N8        30.14R WCI  25
TOPEKA         CLEAR     26  20  77 NE8       30.15R WCI  18



USA.gov is the U.S. government's official web portal to all federal, state and local government web resources and services.